TimeEST,TemperatureF,Dew PointF,Humidity,Sea Level PressureIn,VisibilityMPH,Wind Direction,Wind SpeedMPH,Gust SpeedMPH,PrecipitationIn,Events,Conditions,WindDirDegrees,DateUTC
12:14 AM,16.3,10.4,77,30.43,10.0,SW,3.5,-,N/A,,Clear,230,2013-11-25 05:14:00
12:34 AM,16.7,10.6,77,30.43,10.0,SW,3.5,-,N/A,,Clear,230,2013-11-25 05:34:00
12:55 AM,16.9,10.6,76,30.42,10.0,Calm,Calm,-,N/A,,Clear,0,2013-11-25 05:55:00
1:14 AM,16.9,11.1,78,30.41,10.0,SW,3.5,-,N/A,,Clear,220,2013-11-25 06:14:00
1:34 AM,16.9,11.3,79,30.41,10.0,SW,4.6,-,N/A,,Clear,230,2013-11-25 06:34:00
1:54 AM,17.1,11.7,79,30.42,10.0,SW,3.5,-,N/A,,Clear,230,2013-11-25 06:54:00
2:14 AM,16.7,11.3,79,30.42,10.0,Calm,Calm,-,N/A,,Clear,0,2013-11-25 07:14:00
2:34 AM,16.7,11.8,81,30.42,10.0,SW,3.5,-,N/A,,Clear,230,2013-11-25 07:34:00
2:55 AM,16.7,12.0,82,30.43,10.0,SW,3.5,-,N/A,,Clear,230,2013-11-25 07:55:00
3:14 AM,16.5,11.8,82,30.43,10.0,Calm,Calm,-,N/A,,Clear,0,2013-11-25 08:14:00
3:34 AM,16.2,11.3,81,30.42,10.0,SSW,4.6,-,N/A,,Clear,200,2013-11-25 08:34:00
3:54 AM,16.2,11.3,81,30.41,10.0,Calm,Calm,-,N/A,,Clear,0,2013-11-25 08:54:00
4:14 AM,15.8,11.1,82,30.41,10.0,Calm,Calm,-,N/A,,Clear,0,2013-11-25 09:14:00
4:34 AM,14.7,11.1,86,30.40,10.0,Calm,Calm,-,N/A,,Clear,0,2013-11-25 09:34:00
4:54 AM,14.9,11.1,85,30.40,10.0,Calm,Calm,-,N/A,,Clear,0,2013-11-25 09:54:00
5:14 AM,15.4,11.3,84,30.40,10.0,Calm,Calm,-,N/A,,Clear,0,2013-11-25 10:14:00
5:34 AM,15.8,11.1,82,30.39,10.0,Calm,Calm,-,N/A,,Clear,0,2013-11-25 10:34:00
5:55 AM,16.5,10.9,79,30.39,10.0,South,3.5,-,N/A,,Clear,190,2013-11-25 10:55:00
6:14 AM,16.5,10.8,78,30.39,10.0,South,3.5,-,N/A,,Clear,190,2013-11-25 11:14:00
6:34 AM,16.7,10.6,77,30.38,10.0,South,3.5,-,N/A,,Clear,190,2013-11-25 11:34:00
6:54 AM,16.7,10.6,77,30.38,10.0,South,4.6,-,N/A,,Clear,190,2013-11-25 11:54:00
7:14 AM,16.7,10.6,77,30.38,10.0,Calm,Calm,-,N/A,,Clear,0,2013-11-25 12:14:00
7:34 AM,16.3,10.2,77,30.37,10.0,Calm,Calm,-,N/A,,Clear,0,2013-11-25 12:34:00
7:55 AM,17.2,10.2,74,30.37,10.0,South,4.6,-,N/A,,Clear,190,2013-11-25 12:55:00
8:14 AM,18.3,10.2,71,30.36,10.0,SSW,5.8,-,N/A,,Clear,210,2013-11-25 13:14:00
8:34 AM,19.2,10.0,67,30.36,10.0,SSW,5.8,-,N/A,,Clear,210,2013-11-25 13:34:00
8:54 AM,19.8,10.0,66,30.35,10.0,SSW,4.6,-,N/A,,Clear,210,2013-11-25 13:54:00
9:14 AM,21.2,9.5,61,30.35,10.0,SSW,5.8,-,N/A,,Clear,200,2013-11-25 14:14:00
9:34 AM,22.3,9.5,58,30.34,10.0,SW,9.2,-,N/A,,Clear,220,2013-11-25 14:34:00
9:54 AM,23.7,9.7,55,30.34,10.0,SSW,8.1,16.1,N/A,,Clear,200,2013-11-25 14:54:00
10:14 AM,24.8,10.0,54,30.33,10.0,South,8.1,-,N/A,,Clear,180,2013-11-25 15:14:00
10:34 AM,24.1,9.9,55,30.31,10.0,South,9.2,17.3,N/A,,Clear,170,2013-11-25 15:34:00
10:54 AM,23.9,9.5,54,30.30,10.0,SSW,6.9,-,N/A,,Clear,200,2013-11-25 15:54:00
11:14 AM,23.9,10.4,56,30.29,10.0,South,6.9,-,N/A,,Clear,170,2013-11-25 16:14:00
11:34 AM,26.2,11.5,54,30.28,10.0,South,3.5,-,N/A,,Clear,190,2013-11-25 16:34:00
11:54 AM,26.8,11.1,52,30.27,10.0,SSE,8.1,-,N/A,,Clear,160,2013-11-25 16:54:00
12:14 PM,27.5,10.6,49,30.25,10.0,South,6.9,-,N/A,,Clear,190,2013-11-25 17:14:00
12:34 PM,27.9,10.6,48,30.24,10.0,South,4.6,-,N/A,,Clear,180,2013-11-25 17:34:00
12:54 PM,28.4,11.8,50,30.22,10.0,South,6.9,-,N/A,,Scattered Clouds,170,2013-11-25 17:54:00
1:14 PM,30.0,12.2,48,30.22,10.0,South,5.8,-,N/A,,Clear,190,2013-11-25 18:14:00
1:34 PM,30.0,10.4,44,30.21,10.0,South,8.1,-,N/A,,Clear,170,2013-11-25 18:34:00
1:54 PM,30.4,9.0,41,30.19,10.0,South,5.8,-,N/A,,Scattered Clouds,180,2013-11-25 18:54:00
2:14 PM,30.7,7.0,37,30.19,10.0,South,10.4,-,N/A,,Mostly Cloudy,190,2013-11-25 19:14:00
2:34 PM,30.4,7.2,38,30.18,10.0,South,5.8,-,N/A,,Mostly Cloudy,190,2013-11-25 19:34:00
2:54 PM,30.7,7.2,37,30.18,10.0,SSW,4.6,-,N/A,,Overcast,210,2013-11-25 19:54:00
3:14 PM,30.6,7.9,39,30.18,10.0,SSW,5.8,-,N/A,,Overcast,200,2013-11-25 20:14:00
3:34 PM,30.9,8.4,39,30.19,10.0,South,5.8,-,N/A,,Overcast,180,2013-11-25 20:34:00
3:55 PM,30.7,9.3,41,30.17,10.0,South,5.8,-,N/A,,Overcast,190,2013-11-25 20:55:00
4:14 PM,30.7,9.3,41,30.18,10.0,SSW,6.9,-,N/A,,Overcast,200,2013-11-25 21:14:00
4:34 PM,30.7,9.9,42,30.18,10.0,SSW,5.8,-,N/A,,Overcast,200,2013-11-25 21:34:00
4:54 PM,30.9,10.6,43,30.18,10.0,SSW,6.9,-,N/A,,Overcast,210,2013-11-25 21:54:00
5:15 PM,30.9,10.9,43,30.18,10.0,SSW,5.8,-,N/A,,Overcast,210,2013-11-25 22:15:00
5:34 PM,31.1,11.5,44,30.18,10.0,SW,5.8,-,N/A,,Overcast,220,2013-11-25 22:34:00
5:54 PM,31.1,11.7,45,30.17,10.0,SSW,5.8,-,N/A,,Overcast,200,2013-11-25 22:54:00
6:15 PM,31.5,12.2,45,30.18,10.0,SW,5.8,-,N/A,,Overcast,230,2013-11-25 23:15:00
6:34 PM,31.6,12.7,46,30.18,10.0,SW,5.8,-,N/A,,Overcast,230,2013-11-25 23:34:00
6:54 PM,31.6,13.1,46,30.18,10.0,SW,5.8,-,N/A,,Overcast,230,2013-11-25 23:54:00
7:14 PM,32.0,13.8,47,30.18,10.0,WSW,4.6,-,N/A,,Overcast,240,2013-11-26 00:14:00
7:34 PM,32.0,14.0,48,30.16,10.0,SW,3.5,-,N/A,,Overcast,220,2013-11-26 00:34:00
7:54 PM,32.0,14.5,49,30.16,10.0,SW,5.8,-,N/A,,Overcast,220,2013-11-26 00:54:00
8:15 PM,32.0,14.7,49,30.16,10.0,SSW,3.5,-,N/A,,Overcast,210,2013-11-26 01:15:00
8:34 PM,32.0,14.9,49,30.14,10.0,SW,4.6,-,N/A,,Overcast,220,2013-11-26 01:34:00
8:54 PM,32.0,15.1,50,30.15,10.0,SSW,4.6,-,N/A,,Overcast,210,2013-11-26 01:54:00
9:14 PM,32.2,15.6,51,30.15,10.0,SW,5.8,-,N/A,,Overcast,220,2013-11-26 02:14:00
9:34 PM,32.4,15.6,50,30.15,10.0,SW,5.8,-,N/A,,Overcast,220,2013-11-26 02:34:00
9:54 PM,32.4,15.8,51,30.15,10.0,SSW,3.5,-,N/A,,Overcast,210,2013-11-26 02:54:00
10:14 PM,32.5,16.0,51,30.15,10.0,SSW,4.6,-,N/A,,Overcast,210,2013-11-26 03:14:00
10:34 PM,32.9,16.0,50,30.16,10.0,SSW,4.6,-,N/A,,Overcast,210,2013-11-26 03:34:00
10:55 PM,33.1,16.2,50,30.15,10.0,SW,6.9,-,N/A,,Overcast,230,2013-11-26 03:55:00
11:14 PM,32.9,18.5,55,30.15,10.0,SSW,9.2,-,N/A,,Overcast,210,2013-11-26 04:14:00
11:34 PM,32.0,22.1,67,30.16,10.0,SSW,6.9,-,N/A,,Overcast,210,2013-11-26 04:34:00
11:54 PM,31.3,25.5,79,30.15,10.0,SW,8.1,-,N/A,,Overcast,230,2013-11-26 04:54:00